Regional Weather Roundup
Issued by NWS Albany, NY

Home | Current Version | Previous Version | Graphics & Text | Print | Product List | Glossary Off
Versions: 1 2 3 4 5 6 7 8 9 10 11 12 13 14 15 16 17 18 19 20 21 22 23 24 25 26 27 28 29 30 31 32 33 34 35 36 37 38 39 40 41 42 43 44 45 46 47 48 49 50

000
ASUS41 KALY 031810
RWRALY

NEW YORK STATE HOURLY WEATHER ROUNDUP
NATIONAL WEATHER SERVICE ALBANY NY
200 PM EDT TUE MAY 03 2016

NOTE: "FAIR" INDICATES FEW OR NO CLOUDS BELOW 12,000 FEET WITH NO
SIGNIFICANT WEATHER AND/OR NO OBSTRUCTIONS TO VISIBILITY.

NYZ032-033-038>043-046>054-057>066-NYZ062>081-082-084-031900-
EAST


CITY           SKY/WX    TMP DP  RH WIND       PRES   REMARKS
ALBANY         CLOUDY    53  41  63 N8        29.86F
GLENS FALLS    CLOUDY    52  39  61 VRB7      29.88F
POUGHKEEPSIE   CLOUDY    54  49  83 N7        29.83F HAZE
NEWBURGH       LGT RAIN  52  50  93 E7        29.84F FOG
MONTGOMERY     CLOUDY    51  48  89 NE9       29.84F
WHITE PLAINS   DRIZZLE   51  50  96 E3        29.82F FOG
ISLIP          DRIZZLE   52  49  89 NE10      29.82S
NEW YORK CITY  DRIZZLE   53  51  93 NE14      29.83S
CENTRAL PARK   CLOUDY    51  48  89 E8G17     29.86S
$$

NYZ005>009-017-018-044>046-055-056-031900-
CENTRAL


CITY           SKY/WX    TMP DP  RH WIND       PRES   REMARKS
FULTON         CLOUDY    59  40  49 SE3       29.84F
SYRACUSE       PTSUNNY   55  40  56 E7        29.84F
ROME           PTSUNNY   55  42  61 SE3       29.85F
ELMIRA         CLOUDY    51  41  68 CALM      29.83F
BINGHAMTON     CLOUDY    46  43  89 E3        29.82S FOG
MONTICELLO     CLOUDY    46  46 100 CALM      29.84S
$$

NYZ026>034-041>043-087-031900-
NORTH


CITY           SKY/WX    TMP DP  RH WIND       PRES   REMARKS
WATERTOWN      MOSUNNY   57  41  55 CALM      29.84F
FORT DRUM      NOT AVBL
MASSENA        PTSUNNY   56  38  50 NE7       29.89F
SARANAC LAKE   CLOUDY    48  34  58 N9        29.84F
PLATTSBURGH    NOT AVBL
$$

NYZ001>004-010>016-019>021-085-031900-
WEST


CITY           SKY/WX    TMP DP  RH WIND       PRES   REMARKS
NIAGARA FALLS  PTSUNNY   59  42  53 SE10      29.85F
BUFFALO        PTSUNNY   56  41  57 NE12G18   29.85F
DUNKIRK        CLOUDY    53  42  66 N9        29.85F
JAMESTOWN      CLOUDY    48  41  76 CALM      29.84S
WELLSVILLE     CLOUDY    49  42  77 S3        29.83F
ROCHESTER      PTSUNNY   54  41  61 NE6       29.86F
PENN YAN       PTSUNNY   52  41  66 VRB3      29.85F
$$

             KEY
       WCI = WIND CHILL INDEX
       VSB = VISIBILITY
       HX  = HEAT INDEX
$$



USA.gov is the U.S. government's official web portal to all federal, state and local government web resources and services.